TimeCDT,TemperatureF,Dew PointF,Humidity,Sea Level PressureIn,VisibilityMPH,Wind Direction,Wind SpeedMPH,Gust SpeedMPH,PrecipitationIn,Events,Conditions,WindDirDegrees,DateUTC
12:53 AM,70.0,68.0,93,29.87,6.0,SSW,3.5,-,N/A,,Clear,200,2013-08-07 05:53:00
1:53 AM,71.1,68.0,90,29.87,6.0,SW,3.5,-,N/A,,Clear,220,2013-08-07 06:53:00
2:53 AM,70.0,68.0,93,29.85,5.0,South,4.6,-,N/A,,Clear,180,2013-08-07 07:53:00
3:53 AM,70.0,68.0,93,29.83,3.0,SSW,3.5,-,N/A,,Clear,200,2013-08-07 08:53:00
4:53 AM,70.0,68.0,93,29.83,3.0,South,4.6,-,N/A,,Clear,190,2013-08-07 09:53:00
5:09 AM,69.8,68.0,94,29.85,2.5,SSW,5.8,-,N/A,,Clear,200,2013-08-07 10:09:00
5:21 AM,69.8,68.0,94,29.84,3.0,SSW,5.8,-,N/A,,Clear,210,2013-08-07 10:21:00
5:48 AM,69.8,68.0,94,29.85,2.0,SSW,5.8,-,N/A,,Clear,210,2013-08-07 10:48:00
5:53 AM,70.0,68.0,93,29.83,2.0,SSW,6.9,-,N/A,,Clear,210,2013-08-07 10:53:00
6:15 AM,69.8,69.8,100,29.85,2.5,SW,9.2,-,N/A,,Partly Cloudy,220,2013-08-07 11:15:00
6:30 AM,69.8,69.8,100,29.85,2.0,SW,9.2,-,N/A,,Mostly Cloudy,220,2013-08-07 11:30:00
6:53 AM,71.1,69.1,93,29.83,2.5,SSW,6.9,-,N/A,,Scattered Clouds,210,2013-08-07 11:53:00
7:01 AM,71.6,69.8,94,29.86,3.0,SSW,6.9,-,N/A,,Partly Cloudy,210,2013-08-07 12:01:00
7:53 AM,73.9,70.0,87,29.85,8.0,SW,9.2,-,N/A,,Clear,220,2013-08-07 12:53:00
8:53 AM,77.0,71.1,82,29.85,10.0,SW,6.9,-,N/A,,Clear,230,2013-08-07 13:53:00
9:53 AM,79.0,71.1,77,29.85,10.0,SSW,9.2,-,N/A,,Partly Cloudy,200,2013-08-07 14:53:00
10:53 AM,80.1,72.0,76,29.86,10.0,SSW,9.2,-,N/A,,Mostly Cloudy,200,2013-08-07 15:53:00
11:53 AM,81.0,72.0,74,29.86,10.0,SSW,8.1,-,N/A,,Overcast,210,2013-08-07 16:53:00
12:16 PM,82.4,71.6,70,29.86,10.0,SSW,10.4,-,N/A,,Mostly Cloudy,210,2013-08-07 17:16:00
12:53 PM,84.0,72.0,67,29.84,10.0,SW,11.5,-,N/A,,Mostly Cloudy,220,2013-08-07 17:53:00
1:53 PM,84.0,72.0,67,29.83,10.0,SSW,9.2,-,0.01,,Partly Cloudy,200,2013-08-07 18:53:00
2:53 PM,84.0,73.0,69,29.82,10.0,SSW,10.4,17.3,N/A,,Mostly Cloudy,210,2013-08-07 19:53:00
3:34 PM,77.0,69.8,78,29.85,10.0,NE,6.9,-,N/A,,Mostly Cloudy,50,2013-08-07 20:34:00
3:44 PM,73.4,69.8,88,29.86,0.8,Variable,3.5,-,0.21,Rain,Heavy Rain,0,2013-08-07 20:44:00
3:53 PM,73.0,69.1,87,29.83,0.8,Calm,Calm,-,0.33,Rain,Light Rain,0,2013-08-07 20:53:00
3:56 PM,73.4,69.8,88,29.85,2.0,ENE,5.8,-,0.00,Rain,Light Rain,70,2013-08-07 20:56:00
4:03 PM,73.4,69.8,88,29.84,10.0,East,5.8,-,0.01,Rain,Light Rain,90,2013-08-07 21:03:00
4:53 PM,77.0,72.0,84,29.83,10.0,ESE,8.1,-,0.01,,Overcast,110,2013-08-07 21:53:00
5:45 PM,71.6,69.8,94,29.85,0.8,Variable,4.6,-,0.25,Rain,Heavy Rain,0,2013-08-07 22:45:00
5:53 PM,71.1,70.0,96,29.86,0.5,WNW,4.6,-,0.47,Fog-Rain,Rain,300,2013-08-07 22:53:00
5:56 PM,71.6,69.8,94,29.87,0.5,Variable,3.5,-,0.08,Fog-Rain,Rain,0,2013-08-07 22:56:00
6:03 PM,71.6,71.6,100,29.86,0.5,North,-9999.0,-,0.22,Fog-Rain,Rain,0,2013-08-07 23:03:00
6:08 PM,71.6,71.6,100,29.87,1.2,Calm,Calm,-,0.22,,Overcast,0,2013-08-07 23:08:00
6:10 PM,71.6,71.6,100,29.87,3.0,West,4.6,-,0.22,,Overcast,270,2013-08-07 23:10:00
6:21 PM,73.4,71.6,94,29.87,8.0,Calm,Calm,-,0.22,,Overcast,0,2013-08-07 23:21:00
6:53 PM,73.9,71.1,91,29.86,10.0,WSW,3.5,-,0.22,,Mostly Cloudy,240,2013-08-07 23:53:00
7:19 PM,73.4,69.8,88,29.87,8.0,Calm,Calm,-,N/A,,Overcast,0,2013-08-08 00:19:00
7:32 PM,73.4,69.8,88,29.88,10.0,Calm,Calm,-,N/A,,Mostly Cloudy,0,2013-08-08 00:32:00
7:53 PM,72.0,70.0,93,29.87,6.0,Calm,Calm,-,N/A,,Mostly Cloudy,0,2013-08-08 00:53:00
8:04 PM,71.6,69.8,94,29.90,4.0,Calm,Calm,-,N/A,,Scattered Clouds,0,2013-08-08 01:04:00
8:32 PM,71.6,69.8,94,29.91,4.0,ENE,5.8,-,N/A,,Mostly Cloudy,60,2013-08-08 01:32:00
8:53 PM,71.1,69.1,93,29.91,4.0,Calm,Calm,-,N/A,,Overcast,0,2013-08-08 01:53:00
9:53 PM,71.1,69.1,93,29.93,5.0,NNE,5.8,-,N/A,,Overcast,20,2013-08-08 02:53:00
10:29 PM,69.8,66.2,88,29.94,7.0,Variable,4.6,-,N/A,,Scattered Clouds,0,2013-08-08 03:29:00
10:53 PM,68.0,64.9,90,29.93,10.0,Variable,3.5,-,N/A,,Mostly Cloudy,0,2013-08-08 03:53:00
11:53 PM,66.0,63.0,90,29.94,10.0,Calm,Calm,-,N/A,,Clear,0,2013-08-08 04:53:00